User: anonymous   Login
Location: Whitehorse
(60.7170°N, 135.0500°W)
Time: 00:32:42
(UTC-08:00)
Language:

Cosmos 2219 Rocket - Orbit

View from above orbital plane
View from above orbital plane
View from above satellite
View from above satellite

Ground track
Ground track

The orbit data is extracted from the following two-line orbital elements,

1 22220U 92076B   15062.52810087  .00000100  00000-0  74338-4 0  9997
2 22220 071.0014 020.2838 0010736 112.0088 024.9093 14.16352452152304
Epoch (UTC): 03 March 2015 12:40:27
Eccentricity: 0.0010736
inclination: 71.0014°
perigee height: 830 km
apogee height: 845 km
right ascension of ascending node: 20.2838°
argument of perigee: 112.0088°
revolutions per day: 14.16352452
mean anomaly at epoch: 24.9093°
orbit number at epoch: 15230

The dashed part of the orbit path shows where the satellite is in the earth's shadow,  

DLR